Tracking 31027 objects as of 19-Jul-2025
HD Live streaming from Space Station
objects crossing your sky now

STARLINK-30144

Track STARLINK-30144 now!
10-day predictions
STARLINK-30144 is classified as:


NORAD ID: 56835
Int'l Code: 2023-079N
Perigee: 565.0 km
Apogee: 567.4 km
Inclination: 43.0 °
Period: 95.8 minutes
Semi major axis: 6937 km
RCS: Unknown
Launch date: June 4, 2023
Source: United States (US)
Launch site: AIR FORCE EASTERN TEST RANGE (AFETR)
Your satellite tracking list
DMSP 5D-2 F13 DEB
Track 1 satellite(s)




NASA's NSSDC Master Catalog

Two Line Element Set (TLE):
1 56835U 23079N   25199.33795373 -.00000244  00000-0 -30028-5 0  9994
2 56835  43.0064 300.6212 0001734 269.2175  90.8469 15.02533311117635
Source of the keplerian elements: AFSPC